Terminal Aerodrome Forecast
Issued by NWS Twin Cities, MN

Home | Current Version | Previous Version | Graphics & Text | Print | Product List | Glossary On
Versions: 1 2 3 4 5 6 7 8 9 10 11 12 13 14 15 16 17 18 19 20 21 22 23 24 25 26 27 28 29 30
000
FTUS43 KMPX 192300 RRA
TAFMSP
TAF
KMSP 192339Z 2000/2106 28009KT P6SM SKC
     FM200400 31006KT P6SM SKC
     FM201500 33010KT P6SM SCT250
     FM210000 02006KT P6SM SKC=

USA.gov is the U.S. government's official web portal to all federal, state and local government web resources and services.